When you browse on this site, cookies collect data to enhance your experience and personalize the content and advertising you see.
Visit our Privacy Policy to learn more. By continuing to use the site, you agree to this use of cookies and data.
  • Em Portugal
  • Lista de países
  • Para 7 dias
  • Temperatura da água
  • Mapa do tempo
  • Widgets de tempo
  • user-avatar
    Iniciar Sessão

    Previsão horária em Pert

    Hoje, 18 Novembro, Segunda-feira

    Tempo Temperatura Precipitação Vento Pressão Humidade
    00:00 +21°C° 0 mm 3 m/s 761 mmHg 75%
    01:00 +21°C° 0 mm 3 m/s 760 mmHg 76%
    02:00 +21°C° 0 mm 3 m/s 760 mmHg 76%
    03:00 +21°C° 0 mm 3 m/s 760 mmHg 75%
    04:00 +21°C° 0 mm 3 m/s 760 mmHg 73%
    05:00 +21°C° 0 mm 3 m/s 761 mmHg 72%
    06:00 +22°C° 0 mm 3 m/s 761 mmHg 63%
    07:00 +25°C° 0 mm 3 m/s 761 mmHg 54%
    08:00 +26°C° 0 mm 3 m/s 761 mmHg 45%
    09:00 +28°C° 0 mm 3 m/s 760 mmHg 41%
    10:00 +31°C° 0 mm 2 m/s 760 mmHg 37%
    11:00 +34°C° 0 mm 2 m/s 760 mmHg 33%
    12:00 +34°C° 0 mm 4 m/s 759 mmHg 34%
    13:00 +34°C° 0 mm 5 m/s 758 mmHg 35%
    14:00 +34°C° 0 mm 6 m/s 757 mmHg 36%
    15:00 +33°C° 0 mm 6 m/s 757 mmHg 38%
    16:00 +32°C° 0 mm 6 m/s 757 mmHg 41%
    17:00 +29°C° 0 mm 6 m/s 756 mmHg 43%
    18:00 +28°C° 0 mm 5 m/s 756 mmHg 49%
    19:00 +26°C° 0 mm 5 m/s 756 mmHg 56%
    20:00 +25°C° 0 mm 4 m/s 757 mmHg 62%
    21:00 +23°C° 0 mm 4 m/s 757 mmHg 63%
    22:00 +24°C° 0 mm 3 m/s 757 mmHg 63%
    23:00 +24°C° 0 mm 3 m/s 757 mmHg 63%

    Amanhã, 19 Novembro, Terça-feira

    Tempo Temperatura Precipitação Vento Pressão Humidade
    00:00 +22°C° 0 mm 3 m/s 756 mmHg 62%
    01:00 +22°C° 0 mm 3 m/s 756 mmHg 61%
    02:00 +21°C° 0 mm 2 m/s 755 mmHg 60%
    03:00 +21°C° 0 mm 2 m/s 755 mmHg 61%
    04:00 +20°C° 0 mm 2 m/s 755 mmHg 61%
    05:00 +19°C° 0 mm 2 m/s 755 mmHg 62%
    06:00 +21°C° 0 mm 2 m/s 755 mmHg 59%
    07:00 +22°C° 0 mm 3 m/s 755 mmHg 56%
    08:00 +24°C° 0 mm 3 m/s 755 mmHg 52%
    09:00 +25°C° 0 mm 4 m/s 755 mmHg 51%
    10:00 +25°C° 0 mm 5 m/s 755 mmHg 50%
    11:00 +26°C° 0 mm 6 m/s 755 mmHg 49%
    12:00 +26°C° 0 mm 7 m/s 755 mmHg 51%
    13:00 +26°C° 0 mm 7 m/s 754 mmHg 52%
    14:00 +24°C° 0 mm 7 m/s 754 mmHg 53%
    15:00 +24°C° 0 mm 7 m/s 754 mmHg 51%
    16:00 +23°C° 0 mm 7 m/s 754 mmHg 49%
    17:00 +22°C° 0 mm 6 m/s 755 mmHg 48%
    18:00 +21°C° 0 mm 6 m/s 755 mmHg 54%
    19:00 +19°C° 0 mm 6 m/s 755 mmHg 60%
    20:00 +17°C° 0 mm 5 m/s 756 mmHg 66%
    21:00 +16°C° 0 mm 5 m/s 756 mmHg 68%
    22:00 +16°C° 0 mm 5 m/s 756 mmHg 71%
    23:00 +17°C° 0 mm 4 m/s 757 mmHg 73%

    Depois de amanhã, 20 Novembro, Quarta-feira

    Tempo Temperatura Precipitação Vento Pressão Humidade
    00:00 +16°C° 0 mm 5 m/s 757 mmHg 70%
    01:00 +16°C° 0 mm 5 m/s 756 mmHg 68%
    02:00 +17°C° 0 mm 6 m/s 756 mmHg 65%
    03:00 +17°C° 0.1 mm 6 m/s 756 mmHg 65%
    04:00 +17°C° 0.1 mm 6 m/s 757 mmHg 65%
    05:00 +17°C° 0.1 mm 6 m/s 757 mmHg 65%
    06:00 +17°C° 0 mm 6 m/s 757 mmHg 60%
    07:00 +18°C° 0 mm 7 m/s 758 mmHg 55%
    08:00 +18°C° 0 mm 7 m/s 758 mmHg 51%
    09:00 +20°C° 0 mm 7 m/s 759 mmHg 48%
    10:00 +20°C° 0 mm 7 m/s 759 mmHg 45%
    11:00 +21°C° 0 mm 7 m/s 759 mmHg 41%
    12:00 +21°C° 0 mm 7 m/s 759 mmHg 41%
    13:00 +21°C° 0 mm 7 m/s 759 mmHg 40%
    14:00 +21°C° 0 mm 7 m/s 759 mmHg 39%
    15:00 +20°C° 0 mm 7 m/s 759 mmHg 42%
    16:00 +20°C° 0 mm 7 m/s 759 mmHg 45%
    17:00 +19°C° 0 mm 6 m/s 759 mmHg 48%
    18:00 +17°C° 0 mm 6 m/s 760 mmHg 51%
    19:00 +16°C° 0 mm 6 m/s 760 mmHg 55%
    20:00 +15°C° 0 mm 5 m/s 761 mmHg 59%
    21:00 +15°C° 0 mm 5 m/s 761 mmHg 58%
    22:00 +14°C° 0 mm 4 m/s 761 mmHg 57%
    23:00 +14°C° 0 mm 4 m/s 761 mmHg 56%

    21 Novembro, Quinta-feira

    Tempo Temperatura Precipitação Vento Pressão Humidade
    00:00 +13°C° 0 mm 4 m/s 761 mmHg 55%
    01:00 +13°C° 0 mm 3 m/s 761 mmHg 54%
    02:00 +12°C° 0 mm 3 m/s 761 mmHg 53%
    03:00 +12°C° 0 mm 3 m/s 762 mmHg 53%
    04:00 +12°C° 0 mm 3 m/s 762 mmHg 52%
    05:00 +12°C° 0 mm 3 m/s 762 mmHg 52%
    06:00 +14°C° 0 mm 3 m/s 762 mmHg 48%
    07:00 +16°C° 0 mm 3 m/s 762 mmHg 45%
    08:00 +18°C° 0 mm 3 m/s 763 mmHg 41%
    09:00 +21°C° 0 mm 3 m/s 762 mmHg 36%
    10:00 +24°C° 0 mm 2 m/s 762 mmHg 31%
    11:00 +27°C° 0 mm 2 m/s 761 mmHg 26%
    12:00 +27°C° 0 mm 3 m/s 761 mmHg 27%
    13:00 +28°C° 0 mm 4 m/s 760 mmHg 28%
    14:00 +28°C° 0 mm 5 m/s 759 mmHg 29%
    15:00 +27°C° 0 mm 6 m/s 759 mmHg 33%
    16:00 +24°C° 0 mm 6 m/s 759 mmHg 36%
    17:00 +23°C° 0 mm 7 m/s 759 mmHg 40%
    18:00 +21°C° 0 mm 7 m/s 759 mmHg 44%
    19:00 +20°C° 0 mm 6 m/s 759 mmHg 48%
    20:00 +17°C° 0 mm 5 m/s 760 mmHg 52%
    21:00 +16°C° 0 mm 5 m/s 760 mmHg 53%
    22:00 +16°C° 0 mm 5 m/s 760 mmHg 54%
    23:00 +15°C° 0 mm 4 m/s 760 mmHg 55%

    22 Novembro, Sexta-feira

    Tempo Temperatura Precipitação Vento Pressão Humidade
    00:00 +15°C° 0 mm 4 m/s 760 mmHg 57%
    01:00 +15°C° 0 mm 4 m/s 760 mmHg 59%
    02:00 +15°C° 0 mm 4 m/s 759 mmHg 61%
    03:00 +15°C° 0 mm 4 m/s 760 mmHg 63%
    04:00 +14°C° 0 mm 3 m/s 760 mmHg 65%
    05:00 +14°C° 0 mm 3 m/s 760 mmHg 67%
    06:00 +17°C° 0 mm 4 m/s 760 mmHg 64%
    07:00 +18°C° 0 mm 4 m/s 761 mmHg 60%
    08:00 +19°C° 0 mm 4 m/s 761 mmHg 56%
    09:00 +21°C° 0 mm 4 m/s 760 mmHg 49%
    10:00 +25°C° 0 mm 4 m/s 760 mmHg 41%
    11:00 +27°C° 0 mm 4 m/s 760 mmHg 33%
    12:00 +28°C° 0 mm 4 m/s 759 mmHg 31%
    13:00 +30°C° 0 mm 5 m/s 758 mmHg 29%
    14:00 +32°C° 0 mm 5 m/s 758 mmHg 27%
    15:00 +30°C° 0 mm 6 m/s 757 mmHg 31%
    16:00 +29°C° 0 mm 6 m/s 757 mmHg 35%
    17:00 +28°C° 0 mm 7 m/s 756 mmHg 39%
    18:00 +27°C° 0 mm 6 m/s 757 mmHg 41%
    19:00 +26°C° 0 mm 6 m/s 757 mmHg 44%
    20:00 +23°C° 0 mm 5 m/s 758 mmHg 47%
    21:00 +23°C° 0 mm 6 m/s 759 mmHg 49%
    22:00 +22°C° 0 mm 6 m/s 759 mmHg 52%
    23:00 +21°C° 0 mm 7 m/s 760 mmHg 54%

    23 Novembro, Sábado

    Tempo Temperatura Precipitação Vento Pressão Humidade
    00:00 +20°C° 0 mm 7 m/s 760 mmHg 58%
    01:00 +18°C° 0 mm 7 m/s 760 mmHg 62%
    02:00 +17°C° 0 mm 6 m/s 760 mmHg 67%
    03:00 +16°C° 0 mm 6 m/s 760 mmHg 68%
    04:00 +16°C° 0 mm 5 m/s 759 mmHg 70%
    05:00 +15°C° 0 mm 5 m/s 759 mmHg 71%
    06:00 +17°C° 0 mm 5 m/s 759 mmHg 65%
    07:00 +19°C° 0 mm 5 m/s 760 mmHg 58%
    08:00 +21°C° 0 mm 5 m/s 760 mmHg 51%
    09:00 +23°C° 0 mm 4 m/s 759 mmHg 46%
    10:00 +27°C° 0 mm 4 m/s 759 mmHg 40%
    11:00 +29°C° 0 mm 4 m/s 758 mmHg 35%
    12:00 +30°C° 0 mm 4 m/s 758 mmHg 34%
    13:00 +32°C° 0 mm 4 m/s 757 mmHg 34%
    14:00 +33°C° 0 mm 5 m/s 756 mmHg 33%
    15:00 +32°C° 0 mm 5 m/s 756 mmHg 35%
    16:00 +30°C° 0 mm 6 m/s 755 mmHg 38%
    17:00 +29°C° 0 mm 7 m/s 755 mmHg 40%
    18:00 +28°C° 0 mm 7 m/s 756 mmHg 43%
    19:00 +26°C° 0 mm 6 m/s 756 mmHg 46%
    20:00 +24°C° 0 mm 6 m/s 757 mmHg 48%
    21:00 +23°C° 0 mm 5 m/s 757 mmHg 48%
    22:00 +23°C° 0 mm 5 m/s 757 mmHg 48%
    23:00 +23°C° 0 mm 4 m/s 758 mmHg 47%
    Mostrar mais